sat.trackr.live / text

‹ back to catalog

KUIPER-00040

NORAD 64501 · 2025-134B

PAYLOAD ACTIVE UNKNOWN

§ Identity

Operator
Country
US
Launch date
2025-06-23
Launch site
AFETR
Launch vehicle
Mass (kg)
RCS (m²)

External: N2YO · Heavens-Above · Gunter

§ Orbital elements

Epoch: 2026-05-25T00:42:31.372128Z

Period
97.30 min
Inclination
51.8981°
Eccentricity
0.0000932
Mean motion
14.79943658 rev/d
Perigee alt
628.8 km
Apogee alt
630.2 km
Semi-major
7,007.6 km
B*
-3.9268e-5
RAAN
265.6218°
Arg perigee
160.1523°
Mean anomaly
199.9476°
Rev number
5,123

§ Raw data

KUIPER-000401 64501U 25134B   26145.02952977 -.00000521  00000+0 -39268-4 0  99912 64501  51.8981 265.6218 0000932 160.1523 199.9476 14.79943658 51234

JSON: /api/v1/satellites/64501 · /tle

For live sub-satellite position, see the globe view (requires WebGL).

§ Visibility from observer

Set your observer location to see the next 7 days of passes ≥ 10°. The values pass through the URL so the page stays shareable.

No JS? Fill the form by hand. The geolocation button needs JavaScript.